Wind_Speed
28 27 26 26 27 28 29 30 31 31 31 32 32 32 32 32 31 31 31 31 31 32 32 32 33 34 36 37 37 38 39 39 40 40 41 41 42 42 43 43 43 43 43
30 29 29 28 29 29 30 31 32 33 33 34 34 34 34 34 34 33 33 33 34 34 34 35 35 37 38 39 40 40 41 41 42 43 44 44 45 45 46 47 47 47 47
32 32 31 31 31 31 32 32 33 34 34 35 36 36 36 36 36 35 35 35 36 37 37 37 38 39 40 41 42 43 43 44 45 46 47 48 48 49 50 50 51 51 52
33 34 34 33 33 34 34 34 34 35 35 36 36 37 37 37 37 37 38 38 38 39 40 40 41 42 43 44 45 46 47 48 48 49 50 51 52 53 53 54 54 55 56
35 35 35 35 35 35 35 36 36 36 37 37 37 38 38 39 39 40 40 40 41 41 42 42 44 45 46 47 48 49 50 51 52 52 53 54 55 55 56 57 58 59 59
36 36 37 37 37 37 37 37 37 37 38 38 38 39 39 40 41 42 42 42 43 44 44 45 46 47 48 50 51 53 54 54 55 55 56 57 58 58 59 60 61 62 63
36 37 38 38 37 37 37 37 38 38 38 39 39 40 41 42 43 43 44 44 45 45 47 48 49 50 51 53 54 56 56 57 58 59 60 60 61 62 63 64 65 66 66
37 37 38 38 38 38 38 38 38 38 40 40 41 41 42 42 43 44 45 46 47 48 49 50 52 53 55 56 57 59 59 60 61 62 63 64 64 65 66 67 68 69 70
38 38 38 39 39 39 39 39 39 39 40 41 42 43 44 44 44 44 46 47 48 50 51 53 55 57 59 60 61 62 63 64 65 65 66 67 68 69 70 71 72 73 74
39 39 39 40 40 40 40 40 40 40 40 41 42 44 45 46 46 46 47 48 50 51 53 54 57 59 61 63 64 65 66 67 68 69 70 71 72 73 74 75 76 77 78
39 39 40 40 40 40 40 41 41 41 42 42 43 44 46 47 48 49 49 50 52 53 55 57 59 60 62 64 66 67 69 70 71 72 73 74 75 77 78 80 81 82 84
40 40 40 40 40 40 41 41 42 42 43 44 45 46 47 49 50 51 52 52 53 55 57 59 61 63 64 66 67 69 70 72 73 74 75 77 79 81 83 85 87 89 91
40 40 40 40 40 40 41 42 43 43 45 46 47 48 49 51 52 53 55 56 57 57 59 61 63 65 67 68 69 71 72 73 74 76 78 81 83 86 88 90 91 93 95
41 40 40 40 40 40 41 43 44 45 46 47 48 49 51 52 54 55 58 60 61 61 62 63 65 68 69 70 72 73 74 76 78 81 83 86 88 90 92 92 92 92 90
41 40 40 40 40 41 41 43 44 46 47 48 49 50 52 53 55 57 60 62 65 66 65 65 68 70 71 72 74 75 78 80 83 87 89 91 91 91 90 87 83 78 74
41 40 40 40 41 41 42 43 45 46 47 48 50 52 53 55 57 60 62 64 67 69 70 70 71 73 74 75 77 80 83 86 89 91 92 92 89 85 78 71 65 59 55
40 40 40 40 40 41 43 44 45 47 48 49 51 53 55 57 60 62 64 66 68 70 71 71 73 75 77 79 82 85 88 90 91 91 89 85 78 70 62 55 51 46 44
39 39 39 40 40 42 43 45 46 47 49 50 53 55 57 60 62 64 66 68 70 71 73 73 74 76 80 84 87 89 91 91 89 85 79 72 64 56 50 46 42 40 39
39 39 39 40 41 43 44 45 46 48 50 52 54 57 59 62 64 66 68 69 70 72 74 76 77 80 85 89 90 90 89 85 79 73 66 58 52 48 44 42 40 39 38
38 38 38 39 41 43 44 45 46 49 51 54 56 59 61 64 66 67 68 70 72 73 76 79 82 86 89 91 91 86 79 73 65 59 53 48 45 43 42 42 41 40 39
37 37 38 40 41 43 44 45 47 50 53 56 58 61 63 65 67 68 69 71 73 76 80 84 87 90 91 89 83 77 69 60 52 49 45 43 42 41 42 42 42 41 40
35 36 38 40 41 43 44 46 49 52 55 57 60 62 64 66 67 68 70 73 77 82 86 89 91 90 86 80 73 66 58 49 43 43 42 40 41 41 42 42 43 42 41
35 37 38 40 41 43 45 48 51 54 56 59 61 63 64 65 67 69 72 76 82 88 91 92 89 84 77 69 62 54 47 42 40 41 41 39 41 41 42 42 43 42 41
35 36 38 40 42 44 47 50 52 55 58 60 62 63 65 67 69 72 75 80 85 89 89 87 81 74 66 58 52 45 41 40 39 41 42 40 39 39 39 41 43 42 40
34 36 38 40 43 46 48 51 54 56 58 60 61 64 66 69 72 76 80 84 87 86 83 77 70 62 54 49 45 42 41 40 39 39 42 41 40 38 37 39 41 40 39
34 36 38 41 44 47 50 53 55 57 58 59 62 65 69 73 77 81 84 86 84 78 71 64 57 51 47 44 43 43 42 42 41 40 41 40 39 38 32 33 37 38 37
Wind_Direction
273 274 274 273 272 270 268 267 267 268 269 272 274 277 280 281 283 285 287 288 289 288 288 288 288 289 289 290 290 289 289 288 288 287 286 285 284 283 282 280 279 277 275
274 275 276 276 275 274 272 270 270 270 271 273 275 277 280 282 283 285 287 289 290 290 290 290 290 291 292 292 292 291 290 290 289 288 287 286 284 283 282 281 279 278 276
275 276 277 278 278 277 275 274 273 273 274 275 277 278 280 282 284 285 287 289 291 291 292 292 293 293 294 293 293 293 292 291 290 289 288 286 285 283 282 280 279 278 276
276 277 277 279 280 279 278 277 276 276 276 277 278 279 281 283 285 286 288 290 291 292 293 293 294 294 294 294 294 293 293 292 290 289 288 286 285 284 282 281 279 278 276
276 278 279 279 280 280 280 280 279 278 278 279 280 280 282 284 286 287 289 290 292 292 292 293 294 294 295 295 294 294 293 292 291 289 288 287 285 283 282 281 279 278 276
276 278 280 281 281 280 280 281 281 280 280 280 281 282 284 286 287 288 289 291 292 293 293 294 294 295 295 295 295 295 294 293 291 290 289 287 285 284 282 281 279 278 276
275 278 279 281 281 281 281 282 281 281 281 281 281 283 285 287 288 289 290 292 293 293 294 295 296 296 296 296 295 295 294 293 292 291 289 288 286 285 283 281 280 278 276
275 277 279 280 281 281 282 282 282 283 283 282 283 284 285 287 289 291 292 293 294 295 296 297 297 297 297 297 296 295 295 294 293 292 290 289 287 286 284 282 281 279 277
273 276 279 281 282 282 282 282 283 284 284 284 285 286 286 288 289 290 292 294 295 297 298 298 299 299 299 298 298 297 296 295 294 293 292 290 289 287 285 284 282 280 278
273 275 278 280 281 282 283 283 284 285 286 287 288 288 289 291 292 293 294 295 296 297 298 299 299 299 299 299 299 298 297 296 295 294 293 291 290 288 287 285 283 281 279
271 274 276 279 281 283 284 284 284 286 287 288 289 289 291 293 294 295 296 297 298 299 299 300 300 299 299 299 299 298 297 297 296 294 293 292 290 289 287 285 284 282 280
269 273 276 279 281 283 284 285 286 287 288 289 290 292 293 294 295 296 297 298 299 300 301 301 300 300 300 299 298 297 297 296 295 293 292 291 290 289 287 286 284 282 280
268 271 275 278 281 283 285 287 288 289 290 291 292 293 294 295 297 298 299 300 300 301 301 301 301 301 300 299 299 298 297 296 295 294 293 292 291 290 289 287 285 283 281
266 270 274 278 281 284 286 287 288 289 291 292 293 294 296 297 299 300 301 301 302 302 303 303 302 302 301 301 300 299 298 297 296 296 295 294 293 292 291 289 287 285 282
265 270 274 278 281 284 286 287 289 290 292 293 294 295 297 298 300 301 302 303 303 303 303 303 303 302 302 302 301 300 300 299 299 298 298 297 296 295 294 292 289 287 284
264 269 274 277 282 285 286 287 289 290 292 293 295 296 298 300 302 303 304 304 304 305 305 305 304 304 304 303 303 303 303 302 302 301 300 300 299 297 295 293 290 287 284
264 269 274 278 281 284 286 288 290 291 293 294 296 298 300 302 303 304 304 305 305 305 305 306 306 305 305 305 305 305 305 304 303 302 302 301 299 298 295 292 289 285 282
264 269 274 278 282 285 286 288 290 292 294 296 298 300 301 303 304 305 305 306 306 306 306 306 306 306 306 306 307 306 306 305 304 303 301 300 298 296 294 290 287 284 281
265 270 274 278 282 285 287 288 291 293 295 298 300 301 303 304 305 306 306 307 307 307 307 307 308 308 308 308 308 307 306 305 304 302 300 298 297 295 292 290 288 285 283
266 271 276 280 282 285 288 290 292 295 297 299 301 303 304 305 306 306 307 307 307 308 308 308 309 309 309 309 308 307 307 305 303 301 299 298 296 294 292 290 289 286 285
268 273 277 281 284 287 289 292 294 297 299 301 302 304 305 306 307 307 308 308 308 308 309 309 310 310 310 309 308 308 307 305 302 299 298 297 296 295 293 292 290 288 287
271 275 279 282 286 289 291 294 297 299 300 302 304 305 306 307 307 308 309 309 310 310 310 311 311 311 311 310 309 308 307 304 301 298 299 298 297 295 293 291 290 289 288
273 277 281 285 288 291 294 296 298 300 302 304 305 306 306 307 308 309 310 310 311 312 312 312 312 312 311 310 309 309 307 305 303 300 299 298 296 295 293 291 289 288 287
274 279 283 287 290 294 296 298 300 302 304 305 306 307 308 308 309 309 310 311 312 312 312 312 312 312 312 311 311 309 307 305 305 303 301 301 298 295 293 290 289 289 288
278 282 286 290 294 296 298 300 302 304 305 306 307 308 309 309 310 310 311 313 313 313 313 313 313 313 313 312 311 311 310 309 308 306 303 304 301 298 294 291 290 289 289
283 287 291 294 296 299 301 302 304 305 306 307 308 309 310 311 312 312 313 314 314 314 313 313 313 314 314 314 314 313 312 310 309 307 305 304 303 300 294 289 289 290 289
Height
5806 5806 5806 5806 5807 5807 5807 5807 5807 5806 5806 5806 5805 5804 5803 5802 5802 5801 5799 5797 5796 5794 5793 5791 5789 5788 5786 5785 5783 5781 5779 5777 5776 5774 5773 5772 5771 5770 5769 5768 5768 5768 5768
5800 5800 5801 5801 5801 5801 5801 5801 5800 5800 5800 5799 5799 5798 5796 5795 5794 5794 5792 5790 5788 5786 5785 5783 5781 5779 5777 5775 5773 5771 5769 5768 5766 5764 5762 5761 5760 5759 5758 5757 5756 5756 5756
5794 5795 5795 5795 5795 5795 5794 5794 5794 5794 5793 5792 5792 5790 5789 5788 5787 5786 5785 5783 5780 5778 5776 5774 5772 5770 5768 5766 5763 5761 5759 5757 5755 5753 5751 5749 5748 5747 5745 5745 5744 5743 5743
5788 5788 5789 5789 5789 5788 5788 5788 5787 5787 5786 5785 5784 5783 5782 5780 5779 5778 5776 5774 5772 5770 5768 5765 5763 5760 5758 5755 5753 5750 5748 5746 5743 5741 5739 5737 5735 5733 5732 5731 5730 5729 5729
5782 5782 5782 5782 5782 5782 5781 5781 5780 5779 5778 5778 5777 5776 5774 5773 5771 5769 5768 5765 5763 5761 5759 5756 5753 5750 5747 5744 5741 5738 5736 5733 5731 5728 5726 5724 5721 5720 5718 5716 5715 5714 5713
5776 5776 5775 5775 5775 5775 5774 5773 5772 5772 5771 5770 5769 5768 5766 5765 5763 5760 5758 5756 5754 5751 5748 5746 5743 5739 5736 5733 5729 5726 5723 5719 5717 5714 5711 5709 5706 5704 5702 5700 5698 5697 5696
5769 5769 5768 5768 5768 5767 5767 5766 5765 5764 5763 5762 5761 5759 5758 5756 5754 5751 5749 5746 5744 5741 5737 5734 5731 5727 5724 5720 5716 5712 5709 5705 5702 5698 5695 5692 5690 5687 5685 5682 5680 5679 5677
5762 5761 5761 5761 5760 5760 5759 5758 5757 5756 5754 5753 5752 5750 5749 5748 5745 5742 5739 5735 5732 5729 5726 5722 5718 5714 5710 5706 5702 5698 5694 5690 5686 5682 5678 5675 5671 5668 5665 5663 5660 5658 5657
5754 5754 5754 5753 5753 5752 5751 5750 5749 5748 5746 5744 5742 5741 5739 5737 5736 5733 5729 5725 5721 5717 5713 5708 5704 5699 5695 5690 5686 5681 5677 5672 5668 5664 5659 5655 5651 5648 5644 5641 5638 5636 5634
5747 5747 5746 5746 5745 5744 5743 5742 5741 5739 5737 5735 5733 5731 5728 5726 5723 5722 5719 5714 5710 5706 5701 5696 5690 5685 5679 5674 5669 5664 5659 5654 5649 5644 5639 5635 5630 5626 5622 5618 5615 5612 5609
5739 5739 5739 5738 5737 5736 5735 5734 5732 5730 5728 5726 5724 5721 5718 5715 5712 5709 5707 5703 5698 5693 5688 5682 5677 5671 5665 5659 5653 5647 5641 5635 5630 5624 5619 5613 5608 5603 5599 5594 5590 5586 5582
5731 5732 5731 5730 5729 5728 5727 5725 5723 5721 5719 5716 5714 5711 5708 5704 5701 5697 5694 5691 5687 5681 5675 5668 5662 5656 5650 5644 5637 5630 5624 5617 5611 5605 5598 5592 5586 5580 5574 5568 5563 5557 5552
5723 5724 5723 5722 5721 5720 5718 5716 5714 5712 5709 5706 5703 5700 5696 5693 5688 5684 5680 5676 5672 5668 5661 5654 5646 5639 5633 5626 5619 5612 5605 5598 5591 5583 5576 5569 5561 5554 5546 5539 5532 5525 5519
5715 5715 5715 5714 5712 5711 5710 5707 5705 5702 5699 5696 5693 5689 5685 5680 5676 5671 5665 5660 5656 5653 5646 5639 5630 5622 5615 5608 5600 5592 5585 5576 5568 5560 5551 5543 5534 5525 5516 5507 5498 5490 5483
5706 5707 5707 5705 5704 5703 5701 5698 5696 5693 5689 5686 5682 5678 5674 5669 5663 5657 5651 5645 5639 5634 5631 5623 5613 5605 5596 5588 5580 5571 5563 5553 5544 5533 5523 5513 5504 5493 5483 5473 5464 5457 5451
5698 5698 5698 5697 5696 5694 5692 5689 5686 5683 5679 5675 5671 5667 5662 5656 5650 5644 5637 5630 5622 5615 5610 5604 5594 5585 5576 5567 5558 5548 5538 5528 5516 5504 5493 5483 5473 5463 5453 5445 5438 5432 5428
5690 5690 5690 5689 5687 5685 5683 5680 5676 5673 5669 5664 5660 5655 5649 5643 5637 5630 5623 5615 5607 5598 5592 5587 5575 5565 5555 5545 5536 5525 5513 5502 5489 5477 5466 5455 5446 5438 5431 5425 5420 5415 5412
5682 5682 5681 5680 5678 5676 5673 5670 5666 5662 5658 5653 5648 5642 5636 5630 5623 5615 5608 5599 5591 5581 5573 5567 5559 5547 5536 5524 5513 5502 5489 5475 5463 5452 5441 5432 5424 5418 5413 5408 5405 5402 5399
5673 5674 5673 5672 5669 5667 5664 5660 5656 5652 5647 5641 5636 5630 5623 5616 5608 5600 5592 5583 5574 5564 5554 5546 5539 5527 5515 5501 5490 5478 5465 5451 5438 5428 5420 5414 5407 5402 5398 5394 5391 5388 5386
5665 5665 5664 5663 5660 5657 5654 5650 5645 5641 5635 5629 5623 5616 5609 5601 5593 5585 5576 5567 5557 5547 5537 5527 5517 5506 5493 5478 5465 5455 5444 5431 5419 5410 5404 5398 5393 5389 5384 5380 5377 5375 5373
5657 5657 5656 5654 5651 5648 5644 5639 5635 5629 5624 5617 5610 5603 5595 5587 5578 5569 5560 5550 5539 5529 5518 5507 5496 5484 5470 5456 5443 5432 5423 5414 5404 5395 5392 5386 5381 5376 5371 5367 5363 5360 5358
5650 5649 5647 5644 5641 5638 5634 5629 5624 5618 5611 5604 5597 5589 5581 5572 5563 5553 5543 5532 5520 5508 5497 5485 5474 5460 5447 5433 5423 5412 5404 5398 5393 5384 5380 5375 5369 5365 5359 5354 5350 5347 5345
5642 5640 5638 5635 5632 5628 5623 5618 5612 5606 5599 5591 5583 5575 5566 5557 5547 5538 5528 5516 5502 5487 5473 5462 5450 5436 5425 5415 5406 5398 5389 5383 5379 5371 5367 5365 5358 5353 5346 5340 5336 5333 5331
5634 5632 5629 5626 5622 5617 5612 5607 5600 5593 5586 5578 5569 5560 5551 5542 5532 5522 5512 5501 5486 5470 5455 5441 5429 5417 5406 5397 5389 5384 5378 5373 5368 5359 5353 5351 5346 5341 5335 5327 5322 5319 5317
5625 5623 5620 5616 5611 5607 5601 5595 5588 5581 5573 5565 5555 5546 5536 5527 5516 5506 5495 5482 5468 5451 5435 5420 5409 5400 5391 5383 5377 5372 5366 5361 5357 5350 5341 5337 5332 5328 5324 5315 5309 5305 5303
5617 5614 5610 5606 5601 5595 5589 5583 5576 5569 5561 5552 5542 5532 5521 5510 5498 5485 5473 5461 5448 5434 5420 5407 5396 5387 5380 5373 5366 5360 5354 5349 5344 5339 5331 5326 5320 5314 5313 5307 5299 5294 5291